Content
SEND FEEDBACK

Daily
Averages
Monthly
Summary
United States of America

CALHOUN, LOUISIANA


Home > North America > United States > Louisiana
Elevation: 131 feet     Latitude: 32 31N     Longitude: 092 20W

WEATHER
 
SELECT A DAY
Number of Records: 218,488;   Date Range: 10/26/00 - 9/16/14
 
SHARE

PRINT THIS DATA

[ ← Previous Day ]
WEATHER ALMANAC - FEBRUARY 5, 2013
[ Next Day → ]
[ °C ]   °F
Weather ElementAverageHighLow
Temperature55.4 °F65.8 °F (3:15 pm)45.9 °F (11:35 pm)
Dewpoint52.9 °F57.7 °F (10:35 am)45.9 °F (11:35 pm)
Humidity92.1 %100 % (2:15 am)66 % (3:15 pm)
Barometer30.03 in30.10 in (10:55 pm)29.96 in (12:35 am)
Wind Speed1.4 mph8.1 mph (4:55 pm)
Weather ElementAverage
Visibility5.7 mi
Wind DirectionNE (49 °)

Weather ElementTotal
Precipitation0.04 in
Heating Degree Days9.2 (Base 65)
Growing Degree Days5.8 (Base 50)
Averaged from 68 records on February 5, 2013
WEATHER CONDITIONS BREAKOUT
WIND DIRECTION BREAKOUT
WEATHER BY HOUR - FEBRUARY 5, 2013
[ °C ]   °F
Local TimeTemperatureDewpointHumidityBarometerVisibilityWind DirectionWind SpeedGust SpeedPrecipitationEventsConditions
12:35 AM51.8 °F51.1 °F97 %29.96 in10.0 miCalmScattered Clouds
12:55 AM52.7 °F51.8 °F97 %29.96 in10.0 miSSW (200°)5.8 mphMostly Cloudy
1:15 AM52.7 °F51.8 °F97 %29.96 in10.0 miSSW (200°)4.6 mphMostly Cloudy
1:35 AM53.1 °F51.8 °F95 %29.96 in10.0 miCalmOvercast
1:55 AM52.9 °F52.2 °F97 %29.96 in7.0 miCalm0.02 inRainLight Rain
2:15 AM52.5 °F52.5 °F100 %29.96 in10.0 miCalmOvercast
2:35 AM52.2 °F52.2 °F100 %29.96 in7.0 miCalm0.01 inRainLight Rain
2:55 AM52.0 °F52.0 °F100 %29.96 in7.0 miCalm0.01 inOvercast
3:15 AM51.8 °F51.8 °F100 %29.96 in5.0 miCalmOvercast
3:35 AM52.3 °F52.3 °F100 %29.96 in7.0 miCalmOvercast
3:55 AM52.0 °F52.0 °F100 %29.96 in7.0 miCalmOvercast
4:15 AM52.0 °F52.0 °F100 %29.96 in5.0 miCalmOvercast
4:55 AM51.8 °F51.8 °F100 %29.98 in4.0 miCalmOvercast
5:15 AM52.0 °F52.0 °F100 %29.99 in7.0 miCalmOvercast
5:35 AM52.3 °F52.3 °F100 %29.98 in7.0 miSouth (180°)3.5 mphOvercast
5:55 AM52.5 °F52.5 °F100 %29.99 in7.0 miCalmOvercast
6:15 AM52.7 °F52.7 °F100 %29.99 in5.0 miCalmOvercast
6:35 AM52.7 °F52.7 °F100 %30.00 in5.0 miSouth (180°)4.6 mphOvercast
6:55 AM52.7 °F52.7 °F100 %30.00 in5.0 miCalmOvercast
7:15 AM52.9 °F52.9 °F100 %30.01 in3.0 miCalmOvercast
7:35 AM52.9 °F52.9 °F100 %30.02 in2.0 miCalmOvercast
7:55 AM53.1 °F53.1 °F100 %30.03 in1.2 miCalmOvercast
8:15 AM53.2 °F53.2 °F100 %30.03 in1.0 miCalmOvercast
8:35 AM53.6 °F53.6 °F100 %30.04 in0.8 miCalmOvercast
8:55 AM53.8 °F53.8 °F100 %30.04 in1.0 miCalmOvercast
9:15 AM54.5 °F54.5 °F100 %30.05 in1.2 miCalmOvercast
9:35 AM54.7 °F54.7 °F100 %30.06 in3.0 miCalmOvercast
9:55 AM55.4 °F55.4 °F100 %30.07 in4.0 miCalmOvercast
10:15 AM56.8 °F56.8 °F100 %30.08 in5.0 miCalmOvercast
10:35 AM58.3 °F57.7 °F98 %30.08 in7.0 miCalmOvercast
10:55 AM58.6 °F57.6 °F96 %30.08 in7.0 miCalmOvercast
11:15 AM59.0 °F57.4 °F94 %30.08 in7.0 miCalmOvercast
11:35 AM59.9 °F56.5 °F88 %30.08 in7.0 miCalmOvercast
11:55 AM61.3 °F55.4 °F81 %30.08 in7.0 miEast (100°)3.5 mphOvercast
12:15 PM62.1 °F55.0 °F78 %30.07 in7.0 miCalmOvercast
12:35 PM62.2 °F54.7 °F76 %30.06 in10.0 miCalmOvercast
12:55 PM63.0 °F54.9 °F75 %30.05 in7.0 miCalmOvercast
1:15 PM63.0 °F54.5 °F74 %30.04 in7.0 miSE (130°)3.5 mphOvercast
1:35 PM63.1 °F54.5 °F73 %30.04 in10.0 miCalmMostly Cloudy
1:55 PM63.9 °F54.1 °F71 %30.03 in7.0 miSouth (170°)3.5 mphScattered Clouds
2:15 PM65.5 °F54.3 °F67 %30.03 in10.0 miSSE (150°)3.5 mphScattered Clouds
2:35 PM65.3 °F54.1 °F67 %30.03 in10.0 miSE (130°)5.8 mphOvercast
2:55 PM64.2 °F54.5 °F71 %30.02 in10.0 miEast (100°)3.5 mphScattered Clouds
3:15 PM65.8 °F54.3 °F66 %30.02 in10.0 miSouth (180°)4.6 mphClear
3:35 PM65.8 °F54.1 °F66 %30.02 in10.0 miSSW (200°)4.6 mphScattered Clouds
3:55 PM65.7 °F54.3 °F67 %30.02 in10.0 miSSW (210°)4.6 mphMostly Cloudy
4:15 PM65.7 °F54.5 °F67 %30.02 in10.0 miSSE (160°)6.9 mphMostly Cloudy
4:35 PM64.0 °F54.7 °F72 %30.02 in10.0 miSSE (160°)6.9 mphScattered Clouds
4:55 PM62.8 °F55.0 °F76 %30.02 in10.0 miSouth (180°)8.1 mphClear
5:15 PM61.3 °F55.0 °F80 %30.02 in10.0 miSouth (180°)6.9 mphClear
5:35 PM59.9 °F55.2 °F84 %30.02 in7.0 miSouth (170°)4.6 mphClear
5:55 PM57.7 °F55.2 °F91 %30.02 in7.0 miCalmClear
6:15 PM55.6 °F55.6 °F100 %30.03 in7.0 miCalmClear
6:55 PM54.3 °F54.3 °F100 %30.04 in5.0 miCalmClear
7:15 PM53.2 °F53.2 °F100 %30.05 in4.0 miCalmClear
7:55 PM52.2 °F52.2 °F100 %30.07 in3.0 miSouth (170°)4.6 mphClear
8:15 PM52.7 °F52.7 °F100 %30.07 in4.0 miSouth (180°)4.6 mphClear
8:35 PM51.8 °F51.8 °F100 %30.08 in3.0 miCalmClear
8:55 PM50.2 °F50.2 °F100 %30.08 in1.8 miCalmMist
9:15 PM49.8 °F49.8 °F100 %30.09 in1.5 miCalmMist
9:35 PM48.9 °F48.9 °F100 %30.09 in2.5 miCalmClear
9:55 PM48.4 °F48.4 °F100 %30.09 in0.2 miCalmFogFog
10:15 PM48.2 °F48.2 °F100 %30.09 in0.2 miCalmFogFog
10:35 PM46.6 °F46.6 °F100 %30.09 in0.2 miCalmFogFog
10:55 PM46.9 °F46.9 °F100 %30.10 in0.2 miCalmFogFog
11:15 PM46.0 °F46.0 °F100 %30.10 in0.2 miCalmFogFog
11:35 PM45.9 °F45.9 °F100 %30.10 in0.2 miCalmRainLight Rain
11:55 PM45.9 °F45.9 °F100 %30.10 in0.2 miCalmFogFog
Hourly data recorded from KRSN, located miles away from Calhoun, Louisiana







STORIES FROM OUR PARTNERS